Hourly Weather Allmen

Today, 4 December, Friday

Time Temperature Precipitation Wind Pressure Humidity
00:00 -6°C° 0 mm 3 mps 629 mmHg 66%
01:00 -6°C° 0 mm 3 mps 629 mmHg 66%
02:00 -6°C° 0 mm 3 mps 628 mmHg 67%
03:00 -6°C° 0 mm 3 mps 628 mmHg 68%
04:00 -5°C° 0 mm 2 mps 627 mmHg 69%
05:00 -6°C° 0 mm 3 mps 627 mmHg 69%
06:00 -6°C° 0 mm 3 mps 627 mmHg 70%
07:00 -6°C° 0 mm 3 mps 627 mmHg 70%
08:00 -5°C° 0 mm 3 mps 627 mmHg 68%
09:00 -5°C° 0 mm 3 mps 627 mmHg 66%
10:00 -4°C° 0 mm 3 mps 627 mmHg 64%
11:00 -2°C° 0 mm 3 mps 627 mmHg 62%
12:00 -1°C° 0 mm 2 mps 627 mmHg 61%
13:00 +1°C° 0 mm 2 mps 627 mmHg 60%
14:00 -1°C° 0.1 mm 2 mps 626 mmHg 67%
15:00 -3°C° 0.1 mm 2 mps 626 mmHg 74%
16:00 -2°C° 0.1 mm 1 mps 625 mmHg 81%
17:00 -4°C° 0.2 mm 2 mps 625 mmHg 83%
18:00 -5°C° 0.2 mm 2 mps 625 mmHg 85%
19:00 -6°C° 0.2 mm 2 mps 625 mmHg 87%
20:00 -4°C° 0.6 mm 1 mps 625 mmHg 89%
21:00 -3°C° 0.6 mm 1 mps 625 mmHg 91%
22:00 -3°C° 0.6 mm 1 mps 625 mmHg 93%
23:00 -4°C° 1.1 mm 0 mps 625 mmHg 94%

Tomorrow, 5 December, Saturday

Time Temperature Precipitation Wind Pressure Humidity
00:00 -4°C° 1.1 mm 0 mps 625 mmHg 96%
01:00 -4°C° 1.1 mm 0 mps 626 mmHg 97%
02:00 -4°C° 0.9 mm 0 mps 626 mmHg 97%
03:00 -4°C° 0.9 mm 0 mps 626 mmHg 98%
04:00 -4°C° 0.9 mm 0 mps 626 mmHg 98%
05:00 -4°C° 1.1 mm 0 mps 626 mmHg 98%
06:00 -3°C° 1.1 mm 1 mps 627 mmHg 98%
07:00 -3°C° 1.1 mm 1 mps 627 mmHg 98%
08:00 -4°C° 0.7 mm 0 mps 628 mmHg 98%
09:00 -3°C° 0.7 mm 0 mps 628 mmHg 97%
10:00 -3°C° 0.7 mm 0 mps 629 mmHg 97%
11:00 -3°C° 0.6 mm 0 mps 629 mmHg 97%
12:00 -3°C° 0.6 mm 0 mps 629 mmHg 97%
13:00 -2°C° 0.6 mm 0 mps 630 mmHg 97%
14:00 -2°C° 0.4 mm 0 mps 630 mmHg 97%
15:00 -2°C° 0.4 mm 1 mps 630 mmHg 98%
16:00 -2°C° 0.4 mm 1 mps 630 mmHg 98%
17:00 -2°C° 0.3 mm 1 mps 630 mmHg 98%
18:00 -3°C° 0.3 mm 1 mps 630 mmHg 97%
19:00 -3°C° 0.3 mm 1 mps 630 mmHg 97%
20:00 -3°C° 0.2 mm 1 mps 630 mmHg 96%
21:00 -3°C° 0.2 mm 1 mps 630 mmHg 96%
22:00 -3°C° 0.2 mm 1 mps 630 mmHg 95%
23:00 -3°C° 1 mm 1 mps 630 mmHg 96%

Day after tomorrow, 6 December, Sunday

Time Temperature Precipitation Wind Pressure Humidity
00:00 -3°C° 1 mm 1 mps 630 mmHg 97%
01:00 -3°C° 1 mm 1 mps 631 mmHg 98%
02:00 -4°C° 1.2 mm 0 mps 630 mmHg 98%
03:00 -3°C° 1.2 mm 0 mps 630 mmHg 98%
04:00 -3°C° 1.2 mm 0 mps 630 mmHg 99%
05:00 -3°C° 1.4 mm 0 mps 630 mmHg 99%
06:00 -4°C° 1.4 mm 0 mps 630 mmHg 99%
07:00 -3°C° 1.4 mm 1 mps 630 mmHg 99%
08:00 -2°C° 0.9 mm 1 mps 630 mmHg 99%
09:00 -2°C° 0.9 mm 1 mps 630 mmHg 98%
10:00 -3°C° 0.9 mm 0 mps 630 mmHg 98%
11:00 -2°C° 1 mm 1 mps 629 mmHg 98%
12:00 -2°C° 1 mm 1 mps 629 mmHg 99%
13:00 -2°C° 1 mm 1 mps 628 mmHg 99%
14:00 -2°C° 2.7 mm 1 mps 628 mmHg 99%
15:00 -3°C° 2.7 mm 1 mps 628 mmHg 99%
16:00 -3°C° 2.7 mm 1 mps 627 mmHg 99%
17:00 -3°C° 1.5 mm 1 mps 627 mmHg 99%
18:00 -3°C° 1.5 mm 1 mps 627 mmHg 98%
19:00 -3°C° 1.5 mm 1 mps 627 mmHg 98%
20:00 -3°C° 0.9 mm 1 mps 627 mmHg 98%
21:00 -3°C° 0.9 mm 1 mps 628 mmHg 98%
22:00 -4°C° 0.9 mm 1 mps 628 mmHg 98%
23:00 -4°C° 0.4 mm 1 mps 628 mmHg 98%

7 December, Monday

Time Temperature Precipitation Wind Pressure Humidity
00:00 -4°C° 0.4 mm 1 mps 628 mmHg 98%
01:00 -4°C° 0.4 mm 1 mps 628 mmHg 97%
02:00 -6°C° 0.1 mm 1 mps 629 mmHg 97%
03:00 -6°C° 0.1 mm 1 mps 629 mmHg 96%
04:00 -6°C° 0.1 mm 1 mps 629 mmHg 95%
05:00 -6°C° 0 mm 1 mps 629 mmHg 94%
06:00 -7°C° 0 mm 1 mps 630 mmHg 93%
07:00 -7°C° 0 mm 1 mps 630 mmHg 93%
08:00 -6°C° 0 mm 1 mps 630 mmHg 92%
09:00 -6°C° 0 mm 1 mps 631 mmHg 91%
10:00 -4°C° 0 mm 1 mps 632 mmHg 91%
11:00 -3°C° 0 mm 1 mps 632 mmHg 91%
12:00 -4°C° 0 mm 0 mps 632 mmHg 92%
13:00 -3°C° 0 mm 0 mps 632 mmHg 92%
14:00 -4°C° 0 mm 0 mps 632 mmHg 94%
15:00 -4°C° 0 mm 0 mps 632 mmHg 95%
16:00 -5°C° 0 mm 0 mps 632 mmHg 97%
17:00 -6°C° 0 mm 1 mps 632 mmHg 95%
18:00 -6°C° 0 mm 1 mps 633 mmHg 93%
19:00 -7°C° 0 mm 1 mps 633 mmHg 91%
20:00 -8°C° 0 mm 1 mps 632 mmHg 89%
21:00 -9°C° 0 mm 2 mps 632 mmHg 87%
22:00 -10°C° 0 mm 2 mps 632 mmHg 86%
23:00 -10°C° 0 mm 2 mps 632 mmHg 85%

8 December, Tuesday

Time Temperature Precipitation Wind Pressure Humidity
00:00 -12°C° 0 mm 2 mps 632 mmHg 84%
01:00 -12°C° 0 mm 2 mps 632 mmHg 83%
02:00 -12°C° 0 mm 2 mps 631 mmHg 83%
03:00 -12°C° 0 mm 2 mps 631 mmHg 83%
04:00 -12°C° 0 mm 2 mps 631 mmHg 83%
05:00 -12°C° 0 mm 2 mps 631 mmHg 83%
06:00 -12°C° 0 mm 2 mps 631 mmHg 83%
07:00 -12°C° 0 mm 2 mps 631 mmHg 83%
08:00 -10°C° 0 mm 2 mps 631 mmHg 84%
09:00 -9°C° 0 mm 2 mps 632 mmHg 85%
10:00 -8°C° 0 mm 2 mps 632 mmHg 86%
11:00 -6°C° 0 mm 1 mps 632 mmHg 87%
12:00 -4°C° 0 mm 1 mps 632 mmHg 87%
13:00 -3°C° 0 mm 1 mps 632 mmHg 88%
14:00 -3°C° 0 mm 1 mps 632 mmHg 88%
15:00 -4°C° 0 mm 1 mps 632 mmHg 89%
16:00 -6°C° 0 mm 1 mps 632 mmHg 89%
17:00 -7°C° 0 mm 1 mps 632 mmHg 88%
18:00 -7°C° 0 mm 1 mps 632 mmHg 87%
19:00 -9°C° 0 mm 2 mps 632 mmHg 86%
20:00 -9°C° 0 mm 2 mps 632 mmHg 85%
21:00 -8°C° 0 mm 1 mps 632 mmHg 84%
22:00 -9°C° 0 mm 1 mps 632 mmHg 84%
23:00 -9°C° 0 mm 1 mps 632 mmHg 83%

9 December, Wednesday

Time Temperature Precipitation Wind Pressure Humidity
00:00 -9°C° 0 mm 1 mps 632 mmHg 82%
01:00 -9°C° 0 mm 1 mps 632 mmHg 81%
02:00 -9°C° 0 mm 1 mps 632 mmHg 81%
03:00 -9°C° 0 mm 1 mps 631 mmHg 80%
04:00 -9°C° 0 mm 1 mps 631 mmHg 79%
05:00 -10°C° 0 mm 1 mps 631 mmHg 79%
06:00 -10°C° 0 mm 1 mps 630 mmHg 79%
07:00 -10°C° 0 mm 1 mps 630 mmHg 78%
08:00 -9°C° 0 mm 1 mps 631 mmHg 80%
09:00 -8°C° 0 mm 1 mps 631 mmHg 82%
10:00 -7°C° 0 mm 0 mps 632 mmHg 83%
11:00 -6°C° 0 mm 0 mps 632 mmHg 84%
12:00 -5°C° 0 mm 0 mps 632 mmHg 85%
13:00 -4°C° 0 mm 0 mps 632 mmHg 85%
14:00 -5°C° 0 mm 0 mps 632 mmHg 87%
15:00 -6°C° 0 mm 0 mps 632 mmHg 89%
16:00 -6°C° 0 mm 0 mps 632 mmHg 91%
17:00 -7°C° 0 mm 0 mps 632 mmHg 90%
18:00 -7°C° 0 mm 1 mps 632 mmHg 88%
19:00 -8°C° 0 mm 1 mps 632 mmHg 87%
20:00 -8°C° 0 mm 1 mps 633 mmHg 87%
21:00 -8°C° 0 mm 1 mps 633 mmHg 87%
22:00 -8°C° 0 mm 1 mps 633 mmHg 87%
23:00 -8°C° 0.1 mm 1 mps 633 mmHg 89%
Show more